EW4392 Weather Reports


time (UTC)temp
F
wind
direction
speed
knots
gust
knots
rain 1hr
in
rain 24hr
in
rain mn
in
humidity
%
barometer
mb
20260505041601 64 215 0.0 0.9 0.00 0.00 0.00 54 1011.6
20260505040104 64 208 0.0 1.7 0.00 0.00 0.00 52 1011.6
20260505034557 64 311 0.0 0.0 0.00 0.00 0.00 53 1011.8
20260505033058 64 323 0.0 0.0 0.00 0.00 0.00 55 1011.8
20260505031601 65 323 0.0 0.0 0.00 0.00 0.00 53 1011.7
20260505030100 65 308 0.0 0.0 0.00 0.00 0.00 55 1011.7
20260505024555 65 315 0.0 0.9 0.00 0.00 0.00 55 1011.8
20260505023056 65 241 0.0 0.9 0.00 0.00 0.00 55 1011.8
20260505021555 65 265 0.0 0.9 0.00 0.00 0.00 55 1011.8
20260505020053 66 230 0.0 4.3 0.00 0.00 0.00 55 1011.8
20260505014604 66 217 0.0 3.5 0.00 0.00 0.00 56 1011.7
20260505013051 66 207 0.0 1.7 0.00 0.00 0.00 56 1011.6
20260505011552 66 208 0.0 0.9 0.00 0.00 0.00 57 1011.3
20260505010050 67 337 0.0 0.9 0.00 0.00 0.00 57 1011.1
20260505004555 67 104 0.0 2.6 0.00 0.00 0.00 56 1010.9
20260505003053 68 308 0.0 0.9 0.00 0.00 0.00 55 1010.7
20260505001549 69 324 0.0 0.9 0.00 0.00 0.00 53 1010.6
20260505000055 70 210 0.0 3.5 0.00 0.00 0.00 51 1010.6
20260504234547 72 288 0.0 1.7 0.00 0.00 0.00 45 1010.4
20260504233047 72 239 0.9 4.3 0.00 0.00 0.00 44 1010.3
20260504231545 73 315 0.0 5.2 0.00 0.00 0.00 44 1010.3
20260504230049 74 223 0.0 6.1 0.00 0.00 0.00 44 1010.3
20260504224547 74 153 0.0 7.8 0.00 0.00 0.00 43 1010.5
20260504223042 75 259 1.7 5.2 0.00 0.00 0.00 43 1010.5
20260504221540 75 203 0.9 6.1 0.00 0.00 0.00 43 1010.6
20260504220039 75 7 2.6 6.1 0.00 0.00 0.00 43 1010.8
20260504214537 75 247 1.7 6.1 0.00 0.00 0.00 44 1010.8
20260504213039 75 168 1.7 6.1 0.00 0.00 0.00 44 1011.0
20260504211535 75 323 2.6 13.0 0.00 0.00 0.00 43 1011.0
20260504210046 75 316 2.6 7.8 0.00 0.00 0.00 47 1010.9
20260504204544 73 332 0.9 6.1 0.00 0.00 0.00 48 1010.8
20260504203031 73 147 0.0 5.2 0.00 0.00 0.00 48 1010.8
20260504201526 73 168 1.7 7.8 0.00 0.00 0.00 47 1011.2
20260504200026 73 178 1.7 10.4 0.00 0.00 0.00 46 1011.3
20260504194524 74 213 2.6 7.0 0.00 0.00 0.00 44 1011.6
20260504193021 73 291 3.5 9.6 0.00 0.00 0.00 44 1011.9
20260504191519 73 238 1.7 8.7 0.00 0.00 0.00 47 1012.0
20260504190018 73 114 2.6 6.1 0.00 0.00 0.00 47 1012.1
20260504184515 71 291 2.6 8.7 0.00 0.00 0.00 47 1012.2
20260504183013 69 116 0.9 7.8 0.00 0.00 0.00 49 1012.5
20260504181511 70 288 1.7 7.0 0.00 0.00 0.00 48 1012.8
20260504180010 70 200 2.6 7.0 0.00 0.00 0.00 47 1013.0
20260504174510 70 298 1.7 7.8 0.00 0.00 0.00 46 1012.9
20260504173007 71 291 2.6 7.8 0.00 0.00 0.00 45 1013.1
20260504171505 70 228 3.5 8.7 0.00 0.00 0.00 48 1013.4
20260504160103 69 277 2.6 9.6 0.00 0.00 0.00 48 1014.4
20260504081501 54 301 0.0 4.3 0.00 0.00 0.00 48 1015.5
20260504044543 48 315 0.0 1.7 0.00 0.00 0.00 58 1015.9
20260504043048 47 348 0.0 1.7 0.00 0.00 0.00 61 1015.8